Tracking 27401 objects as of 4-Jun-2023
HD Live streaming from Space Station
objects crossing your sky now

SL-12 R/B(2)

Track SL-12 R/B(2) now!


NORAD ID: 19777
Int'l Code: 1988-095F
Perigee: 36,406.0 km
Apogee: 36,516.3 km
Inclination: 14.0 °
Period: 1,470.3 minutes
Semi major axis: 42832 km
RCS: 2.6743 m2 (large)
Launch date: October 20, 1988
Source: Commonwealth of Independent States (former USSR) (CIS)
Launch site: TYURATAM MISSILE AND SPACE COMPLEX (TTMTR)

Note: This is a ROCKET BODY
Your satellite tracking list
Your tracking list is empty




NASA's NSSDC Master Catalog

Two Line Element Set (TLE):
1 19777U 88095F   23154.51785486 -.00000039  00000-0  00000-0 0  9993
2 19777  13.9668 341.3520 0012883 219.4800 327.5971  0.97937238111421
Source of the keplerian elements: AFSPC